| time (UTC) | temp F | wind direction | speed MPH | gust MPH | rain 1hr in | rain 24hr in | rain mn in | humidity % | barometer mb |
| 20260505093115 | 60 | 252 | 3.0 | 3.0 | 0.00 | 0.00 | 0.00 | 54 | 1015.4 |
| 20260505092612 | 60 | 271 | 2.0 | 5.0 | 0.00 | 0.00 | 0.00 | 53 | 1015.2 |
| 20260505092111 | 61 | 348 | 3.0 | 6.0 | 0.00 | 0.00 | 0.00 | 52 | 1015.4 |
| 20260505091607 | 61 | 314 | 2.0 | 4.0 | 0.00 | 0.00 | 0.00 | 52 | 1015.4 |
| 20260505091106 | 61 | 318 | 6.0 | 6.0 | 0.00 | 0.00 | 0.00 | 52 | 1015.8 |
| 20260505090603 | 61 | 327 | 3.0 | 5.0 | 0.00 | 0.00 | 0.00 | 53 | 1015.8 |
| 20260505090101 | 61 | 256 | 1.0 | 6.0 | 0.00 | 0.00 | 0.00 | 52 | 1015.9 |
| 20260505085558 | 61 | 275 | 3.0 | 8.0 | 0.00 | 0.00 | 0.00 | 52 | 1015.8 |
| 20260505085057 | 60 | 236 | 4.0 | 4.0 | 0.00 | 0.00 | 0.00 | 53 | 1016.1 |
| 20260505084554 | 60 | 356 | 2.0 | 4.0 | 0.00 | 0.00 | 0.00 | 53 | 1016.0 |
| 20260505084052 | 61 | 275 | 0.0 | 3.0 | 0.00 | 0.00 | 0.00 | 52 | 1016.1 |
| 20260505083549 | 61 | 328 | 4.0 | 8.0 | 0.00 | 0.00 | 0.00 | 51 | 1016.1 |
| 20260505083046 | 61 | 311 | 3.0 | 6.0 | 0.00 | 0.00 | 0.00 | 51 | 1016.2 |
| 20260505082541 | 62 | 328 | 6.0 | 9.0 | 0.00 | 0.00 | 0.00 | 51 | 1016.3 |
| 20260505082039 | 62 | 281 | 5.0 | 16.0 | 0.00 | 0.00 | 0.00 | 50 | 1016.5 |
| 20260505081535 | 62 | 317 | 2.0 | 9.0 | 0.00 | 0.00 | 0.00 | 50 | 1016.5 |
| 20260505081032 | 61 | 10 | 2.0 | 5.0 | 0.00 | 0.00 | 0.00 | 51 | 1016.6 |
| 20260505080528 | 61 | 248 | 4.0 | 10.0 | 0.00 | 0.00 | 0.00 | 52 | 1016.5 |
| 20260505080025 | 61 | 340 | 5.0 | 6.0 | 0.00 | 0.00 | 0.00 | 52 | 1016.5 |
| 20260505075521 | 61 | 276 | 3.0 | 6.0 | 0.00 | 0.00 | 0.00 | 51 | 1016.6 |
| 20260505075018 | 61 | 295 | 3.0 | 16.0 | 0.00 | 0.00 | 0.00 | 52 | 1016.7 |
| 20260505074515 | 62 | 336 | 1.0 | 18.0 | 0.00 | 0.00 | 0.00 | 52 | 1016.7 |
| 20260505074012 | 62 | 258 | 3.0 | 8.0 | 0.00 | 0.00 | 0.00 | 53 | 1016.6 |
| 20260505073510 | 62 | 256 | 4.0 | 6.0 | 0.00 | 0.00 | 0.00 | 53 | 1016.6 |
| 20260505073008 | 62 | 332 | 3.0 | 4.0 | 0.00 | 0.00 | 0.00 | 53 | 1016.7 |
| 20260505072503 | 62 | 265 | 6.0 | 12.0 | 0.00 | 0.00 | 0.00 | 52 | 1016.6 |
| 20260505071959 | 62 | 248 | 4.0 | 5.0 | 0.00 | 0.00 | 0.00 | 52 | 1016.6 |
| 20260505071455 | 62 | 225 | 2.0 | 3.0 | 0.00 | 0.00 | 0.00 | 52 | 1016.7 |
| 20260505070953 | 62 | 354 | 4.0 | 5.0 | 0.00 | 0.00 | 0.00 | 52 | 1016.6 |
| 20260505070450 | 62 | 329 | 6.0 | 6.0 | 0.00 | 0.00 | 0.00 | 52 | 1016.6 |
| 20260505065946 | 62 | 273 | 2.0 | 6.0 | 0.00 | 0.00 | 0.00 | 52 | 1016.3 |
| 20260505065442 | 62 | 322 | 4.0 | 6.0 | 0.00 | 0.00 | 0.00 | 52 | 1016.6 |
| 20260505064940 | 62 | 202 | 2.0 | 4.0 | 0.00 | 0.00 | 0.00 | 53 | 1016.7 |
| 20260505064436 | 62 | 244 | 2.0 | 7.0 | 0.00 | 0.00 | 0.00 | 52 | 1016.8 |
| 20260505063934 | 62 | 240 | 11.0 | 15.0 | 0.00 | 0.00 | 0.00 | 52 | 1016.5 |
| 20260505063431 | 62 | 274 | 4.0 | 11.0 | 0.00 | 0.00 | 0.00 | 52 | 1016.5 |
| 20260505062927 | 62 | 263 | 6.0 | 8.0 | 0.00 | 0.00 | 0.00 | 52 | 1016.8 |
| 20260505062425 | 62 | 262 | 4.0 | 11.0 | 0.00 | 0.00 | 0.00 | 52 | 1016.8 |
| 20260505061921 | 62 | 232 | 9.0 | 11.0 | 0.00 | 0.00 | 0.00 | 52 | 1016.9 |
| 20260505061419 | 61 | 261 | 2.0 | 5.0 | 0.00 | 0.00 | 0.00 | 53 | 1016.8 |
| 20260505060917 | 61 | 232 | 7.0 | 10.0 | 0.00 | 0.00 | 0.00 | 53 | 1017.0 |
| 20260505060413 | 62 | 228 | 3.0 | 6.0 | 0.00 | 0.00 | 0.00 | 51 | 1016.8 |
| 20260505055910 | 62 | 338 | 10.0 | 12.0 | 0.00 | 0.00 | 0.00 | 50 | 1016.7 |
| 20260505055406 | 62 | 278 | 3.0 | 14.0 | 0.00 | 0.00 | 0.00 | 50 | 1016.8 |
| 20260505054903 | 62 | 256 | 9.0 | 14.0 | 0.00 | 0.00 | 0.00 | 51 | 1016.7 |
| 20260505054400 | 62 | 268 | 5.0 | 11.0 | 0.00 | 0.00 | 0.00 | 51 | 1017.0 |
| 20260505053858 | 62 | 321 | 5.0 | 12.0 | 0.00 | 0.00 | 0.00 | 50 | 1017.2 |
| 20260505053355 | 62 | 250 | 14.0 | 19.0 | 0.00 | 0.00 | 0.00 | 50 | 1017.3 |
| 20260505052852 | 63 | 276 | 7.0 | 24.0 | 0.00 | 0.00 | 0.00 | 49 | 1017.1 |
| 20260505052348 | 63 | 228 | 15.0 | 22.0 | 0.00 | 0.00 | 0.00 | 48 | 1017.0 |
| 20260505051846 | 63 | 231 | 13.0 | 20.0 | 0.00 | 0.00 | 0.00 | 48 | 1017.0 |
| 20260505051343 | 63 | 252 | 7.0 | 8.0 | 0.00 | 0.00 | 0.00 | 47 | 1017.1 |
| 20260505050842 | 63 | 240 | 9.0 | 16.0 | 0.00 | 0.00 | 0.00 | 46 | 1017.0 |
| 20260505050340 | 63 | 241 | 11.0 | 13.0 | 0.00 | 0.00 | 0.00 | 46 | 1016.8 |
| 20260505041306 | 63 | 249 | 9.0 | 15.0 | 0.00 | 0.00 | 0.00 | 47 | 1017.3 |
| 20260505040804 | 63 | 297 | 6.0 | 14.0 | 0.00 | 0.00 | 0.00 | 48 | 1017.1 |
| 20260505040301 | 64 | 250 | 9.0 | 16.0 | 0.00 | 0.00 | 0.00 | 47 | 1017.2 |
| 20260505035758 | 64 | 301 | 7.0 | 15.0 | 0.00 | 0.00 | 0.00 | 48 | 1017.0 |
| 20260505035253 | 64 | 301 | 5.0 | 18.0 | 0.00 | 0.00 | 0.00 | 47 | 1017.1 |
| 20260505034751 | 64 | 297 | 5.0 | 18.0 | 0.00 | 0.00 | 0.00 | 46 | 1017.1 |
| 20260505034247 | 64 | 313 | 8.0 | 22.0 | 0.00 | 0.00 | 0.00 | 46 | 1016.9 |
| 20260505033744 | 64 | 300 | 6.0 | 16.0 | 0.00 | 0.00 | 0.00 | 47 | 1016.8 |
| 20260505033242 | 64 | 249 | 7.0 | 16.0 | 0.00 | 0.00 | 0.00 | 46 | 1016.7 |
| 20260505032740 | 64 | 337 | 8.0 | 13.0 | 0.00 | 0.00 | 0.00 | 46 | 1016.9 |
| 20260505032235 | 64 | 104 | 0.0 | 10.0 | 0.00 | 0.00 | 0.00 | 45 | 1016.8 |
| 20260505031733 | 64 | 351 | 4.0 | 12.0 | 0.00 | 0.00 | 0.00 | 45 | 1016.6 |
| 20260505031229 | 64 | 240 | 4.0 | 9.0 | 0.00 | 0.00 | 0.00 | 46 | 1016.3 |
| 20260505030726 | 64 | 320 | 2.0 | 9.0 | 0.00 | 0.00 | 0.00 | 45 | 1016.5 |
| 20260505030222 | 64 | 281 | 5.0 | 12.0 | 0.00 | 0.00 | 0.00 | 45 | 1016.5 |
| 20260505025718 | 65 | 310 | 6.0 | 14.0 | 0.00 | 0.00 | 0.00 | 45 | 1016.2 |
| 20260505025217 | 65 | 319 | 2.0 | 10.0 | 0.00 | 0.00 | 0.00 | 44 | 1016.5 |
| 20260505024714 | 65 | 0 | 4.0 | 11.0 | 0.00 | 0.00 | 0.00 | 44 | 1016.1 |
| 20260505024211 | 65 | 321 | 10.0 | 14.0 | 0.00 | 0.00 | 0.00 | 44 | 1016.0 |
| 20260505023708 | 65 | 338 | 5.0 | 11.0 | 0.00 | 0.00 | 0.00 | 44 | 1016.0 |
| 20260505023206 | 65 | 255 | 11.0 | 19.0 | 0.00 | 0.00 | 0.00 | 43 | 1016.0 |
| 20260505022703 | 65 | 302 | 8.0 | 14.0 | 0.00 | 0.00 | 0.00 | 43 | 1016.2 |
| 20260505022200 | 65 | 256 | 3.0 | 20.0 | 0.00 | 0.00 | 0.00 | 42 | 1015.9 |
| 20260505021657 | 66 | 239 | 7.0 | 19.0 | 0.00 | 0.00 | 0.00 | 43 | 1016.0 |
| 20260505021153 | 66 | 325 | 8.0 | 13.0 | 0.00 | 0.00 | 0.00 | 43 | 1015.8 |
| 20260505020649 | 66 | 328 | 13.0 | 24.0 | 0.00 | 0.00 | 0.00 | 43 | 1015.8 |
| 20260505020145 | 66 | 342 | 11.0 | 18.0 | 0.00 | 0.00 | 0.00 | 43 | 1015.7 |
| 20260505015643 | 66 | 315 | 11.0 | 15.0 | 0.00 | 0.00 | 0.00 | 42 | 1015.7 |
| 20260505015139 | 66 | 254 | 4.0 | 13.0 | 0.00 | 0.00 | 0.00 | 42 | 1015.8 |
| 20260505014636 | 67 | 340 | 5.0 | 6.0 | 0.00 | 0.00 | 0.00 | 41 | 1016.0 |
| 20260505014133 | 67 | 201 | 3.0 | 27.0 | 0.00 | 0.00 | 0.00 | 41 | 1016.3 |
| 20260505013630 | 67 | 295 | 9.0 | 11.0 | 0.00 | 0.00 | 0.00 | 42 | 1015.9 |
| 20260505013127 | 67 | 337 | 14.0 | 15.0 | 0.00 | 0.00 | 0.00 | 41 | 1015.8 |
| 20260505012625 | 68 | 320 | 11.0 | 15.0 | 0.00 | 0.00 | 0.00 | 40 | 1015.8 |
| 20260505012122 | 68 | 10 | 2.0 | 5.0 | 0.00 | 0.00 | 0.00 | 41 | 1015.8 |
| 20260505011617 | 68 | 254 | 8.0 | 18.0 | 0.00 | 0.00 | 0.00 | 40 | 1016.0 |
| 20260505011115 | 69 | 351 | 7.0 | 10.0 | 0.00 | 0.00 | 0.00 | 38 | 1015.7 |
| 20260505010610 | 69 | 10 | 5.0 | 18.0 | 0.00 | 0.00 | 0.00 | 39 | 1015.9 |
| 20260505010107 | 70 | 338 | 7.0 | 14.0 | 0.00 | 0.00 | 0.00 | 39 | 1015.8 |
| 20260505005603 | 69 | 236 | 6.0 | 11.0 | 0.00 | 0.00 | 0.00 | 39 | 1016.0 |
| 20260505005101 | 70 | 278 | 6.0 | 15.0 | 0.00 | 0.00 | 0.00 | 38 | 1016.0 |
| 20260505004557 | 70 | 319 | 9.0 | 13.0 | 0.00 | 0.00 | 0.00 | 38 | 1015.8 |
| 20260505004054 | 71 | 219 | 6.0 | 8.0 | 0.00 | 0.00 | 0.00 | 36 | 1016.0 |
| 20260505003552 | 70 | 232 | 10.0 | 19.0 | 0.00 | 0.00 | 0.00 | 37 | 1015.8 |
| 20260505003049 | 71 | 292 | 4.0 | 9.0 | 0.00 | 0.00 | 0.00 | 35 | 1015.8 |
| 20260505002543 | 71 | 321 | 7.0 | 17.0 | 0.00 | 0.00 | 0.00 | 35 | 1015.9 |
| 20260505002043 | 71 | 304 | 8.0 | 18.0 | 0.00 | 0.00 | 0.00 | 35 | 1015.8 |
| 20260505001540 | 71 | 333 | 6.0 | 7.0 | 0.00 | 0.00 | 0.00 | 35 | 1015.7 |
| 20260505001037 | 71 | 298 | 12.0 | 20.0 | 0.00 | 0.00 | 0.00 | 35 | 1015.6 |
| 20260505000534 | 71 | 238 | 2.0 | 16.0 | 0.00 | 0.00 | 0.00 | 34 | 1015.7 |
| 20260505000032 | 72 | 276 | 7.0 | 13.0 | 0.00 | 0.00 | 0.00 | 35 | 1015.6 |
| 20260504235528 | 71 | 273 | 4.0 | 13.0 | 0.00 | 0.00 | 0.00 | 33 | 1015.4 |
| 20260504235025 | 71 | 263 | 6.0 | 21.0 | 0.00 | 0.00 | 0.00 | 34 | 1015.5 |
| 20260504234522 | 72 | 251 | 12.0 | 20.0 | 0.00 | 0.00 | 0.00 | 34 | 1015.4 |
| 20260504234019 | 72 | 247 | 12.0 | 17.0 | 0.00 | 0.00 | 0.00 | 33 | 1015.4 |
| 20260504233514 | 71 | 260 | 9.0 | 14.0 | 0.00 | 0.00 | 0.00 | 34 | 1015.1 |
| 20260504233011 | 73 | 249 | 6.0 | 7.0 | 0.00 | 0.00 | 0.00 | 33 | 1015.2 |
| 20260504232508 | 73 | 237 | 17.0 | 23.0 | 0.00 | 0.00 | 0.00 | 33 | 1015.4 |
| 20260504232006 | 74 | 312 | 6.0 | 14.0 | 0.00 | 0.00 | 0.00 | 32 | 1015.2 |
| 20260504231502 | 73 | 295 | 10.0 | 18.0 | 0.00 | 0.00 | 0.00 | 33 | 1015.4 |
| 20260504230958 | 73 | 259 | 11.0 | 17.0 | 0.00 | 0.00 | 0.00 | 32 | 1015.2 |
| 20260504230455 | 74 | 244 | 15.0 | 21.0 | 0.00 | 0.00 | 0.00 | 32 | 1015.3 |
| 20260504225954 | 73 | 268 | 7.0 | 18.0 | 0.00 | 0.00 | 0.00 | 33 | 1015.4 |
| 20260504225450 | 73 | 250 | 9.0 | 22.0 | 0.00 | 0.00 | 0.00 | 33 | 1015.3 |
| 20260504224947 | 73 | 277 | 6.0 | 19.0 | 0.00 | 0.00 | 0.00 | 33 | 1015.3 |
| 20260504224444 | 73 | 307 | 10.0 | 18.0 | 0.00 | 0.00 | 0.00 | 33 | 1015.1 |
| 20260504223941 | 74 | 336 | 7.0 | 11.0 | 0.00 | 0.00 | 0.00 | 32 | 1015.2 |
| 20260504223437 | 74 | 240 | 15.0 | 18.0 | 0.00 | 0.00 | 0.00 | 31 | 1015.5 |
| 20260504222933 | 73 | 328 | 9.0 | 17.0 | 0.00 | 0.00 | 0.00 | 32 | 1015.3 |
| 20260504222431 | 73 | 303 | 6.0 | 23.0 | 0.00 | 0.00 | 0.00 | 32 | 1015.6 |
| 20260504221928 | 73 | 278 | 13.0 | 22.0 | 0.00 | 0.00 | 0.00 | 33 | 1015.6 |
| 20260504221425 | 74 | 273 | 6.0 | 19.0 | 0.00 | 0.00 | 0.00 | 31 | 1015.5 |
| 20260504220922 | 74 | 294 | 5.0 | 14.0 | 0.00 | 0.00 | 0.00 | 32 | 1015.6 |
| 20260504220419 | 75 | 247 | 10.0 | 20.0 | 0.00 | 0.00 | 0.00 | 31 | 1015.3 |
| 20260504215916 | 76 | 239 | 13.0 | 15.0 | 0.00 | 0.00 | 0.00 | 31 | 1015.6 |
| 20260504215413 | 74 | 291 | 6.0 | 15.0 | 0.00 | 0.00 | 0.00 | 32 | 1015.5 |
| 20260504214909 | 74 | 315 | 8.0 | 16.0 | 0.00 | 0.00 | 0.00 | 31 | 1015.6 |
| 20260504214405 | 74 | 252 | 9.0 | 13.0 | 0.00 | 0.00 | 0.00 | 31 | 1015.6 |
| 20260504213902 | 76 | 291 | 6.0 | 16.0 | 0.00 | 0.00 | 0.00 | 30 | 1015.8 |
| 20260504213358 | 75 | 327 | 5.0 | 6.0 | 0.00 | 0.00 | 0.00 | 31 | 1015.9 |
| 20260504212855 | 73 | 252 | 6.0 | 14.0 | 0.00 | 0.00 | 0.00 | 32 | 1015.9 |
| 20260504212351 | 75 | 345 | 7.0 | 14.0 | 0.00 | 0.00 | 0.00 | 31 | 1015.8 |
| 20260504211849 | 73 | 312 | 8.0 | 18.0 | 0.00 | 0.00 | 0.00 | 32 | 1016.0 |
| 20260504211345 | 74 | 292 | 2.0 | 6.0 | 0.00 | 0.00 | 0.00 | 31 | 1015.9 |
| 20260504210843 | 73 | 1 | 5.0 | 10.0 | 0.00 | 0.00 | 0.00 | 33 | 1015.9 |
| 20260504210340 | 74 | 289 | 6.0 | 13.0 | 0.00 | 0.00 | 0.00 | 33 | 1016.0 |
| 20260504205837 | 73 | 253 | 6.0 | 11.0 | 0.00 | 0.00 | 0.00 | 34 | 1016.3 |
| 20260504205335 | 73 | 303 | 10.0 | 16.0 | 0.00 | 0.00 | 0.00 | 34 | 1016.0 |
| 20260504204832 | 73 | 311 | 4.0 | 12.0 | 0.00 | 0.00 | 0.00 | 33 | 1016.2 |
| 20260504204331 | 75 | 281 | 8.0 | 10.0 | 0.00 | 0.00 | 0.00 | 33 | 1016.3 |
| 20260504203830 | 75 | 280 | 2.0 | 5.0 | 0.00 | 0.00 | 0.00 | 32 | 1016.3 |
| 20260504203326 | 73 | 287 | 4.0 | 11.0 | 0.00 | 0.00 | 0.00 | 34 | 1016.2 |
| 20260504202822 | 74 | 336 | 7.0 | 10.0 | 0.00 | 0.00 | 0.00 | 34 | 1016.5 |
| 20260504202320 | 74 | 87 | 1.0 | 5.0 | 0.00 | 0.00 | 0.00 | 32 | 1016.3 |
| 20260504201816 | 74 | 180 | 2.0 | 4.0 | 0.00 | 0.00 | 0.00 | 33 | 1016.7 |
| 20260504201313 | 73 | 97 | 4.0 | 6.0 | 0.00 | 0.00 | 0.00 | 34 | 1016.7 |
| 20260504200811 | 73 | 5 | 5.0 | 10.0 | 0.00 | 0.00 | 0.00 | 34 | 1016.6 |
| 20260504200307 | 71 | 295 | 6.0 | 12.0 | 0.00 | 0.00 | 0.00 | 35 | 1016.7 |
| 20260504195803 | 71 | 232 | 3.0 | 4.0 | 0.00 | 0.00 | 0.00 | 36 | 1017.1 |
| 20260504195259 | 71 | 348 | 3.0 | 9.0 | 0.00 | 0.00 | 0.00 | 36 | 1016.9 |
| 20260504194756 | 70 | 317 | 10.0 | 16.0 | 0.00 | 0.00 | 0.00 | 37 | 1016.9 |
| 20260504194253 | 69 | 275 | 7.0 | 14.0 | 0.00 | 0.00 | 0.00 | 38 | 1017.2 |
| 20260504193749 | 70 | 305 | 15.0 | 21.0 | 0.00 | 0.00 | 0.00 | 37 | 1017.1 |
| 20260504193246 | 71 | 314 | 7.0 | 9.0 | 0.00 | 0.00 | 0.00 | 37 | 1017.3 |
| 20260504192744 | 72 | 263 | 2.0 | 5.0 | 0.00 | 0.00 | 0.00 | 36 | 1017.3 |
| 20260504192242 | 71 | 335 | 4.0 | 5.0 | 0.00 | 0.00 | 0.00 | 35 | 1017.5 |
| 20260504191741 | 70 | 333 | 8.0 | 12.0 | 0.00 | 0.00 | 0.00 | 37 | 1017.7 |
| 20260504191237 | 70 | 4 | 3.0 | 9.0 | 0.00 | 0.00 | 0.00 | 37 | 1017.6 |
| 20260504190732 | 69 | 48 | 3.0 | 11.0 | 0.00 | 0.00 | 0.00 | 38 | 1018.0 |
| 20260504190229 | 70 | 302 | 6.0 | 8.0 | 0.00 | 0.00 | 0.00 | 36 | 1017.7 |
| 20260504185726 | 70 | 334 | 2.0 | 6.0 | 0.00 | 0.00 | 0.00 | 36 | 1017.9 |
| 20260504185223 | 69 | 290 | 10.0 | 14.0 | 0.00 | 0.00 | 0.00 | 37 | 1017.8 |
| 20260504184719 | 69 | 357 | 2.0 | 8.0 | 0.00 | 0.00 | 0.00 | 38 | 1017.9 |
| 20260504184215 | 69 | 234 | 9.0 | 13.0 | 0.00 | 0.00 | 0.00 | 38 | 1017.8 |
| 20260504183711 | 70 | 235 | 14.0 | 19.0 | 0.00 | 0.00 | 0.00 | 36 | 1017.8 |
| 20260504183208 | 70 | 114 | 5.0 | 6.0 | 0.00 | 0.00 | 0.00 | 36 | 1017.9 |
| 20260504182706 | 69 | 324 | 6.0 | 7.0 | 0.00 | 0.00 | 0.00 | 36 | 1017.8 |
| 20260504182203 | 69 | 58 | 3.0 | 6.0 | 0.00 | 0.00 | 0.00 | 36 | 1017.9 |
| 20260504181700 | 70 | 107 | 2.0 | 5.0 | 0.00 | 0.00 | 0.00 | 35 | 1018.0 |
| 20260504181158 | 70 | 43 | 1.0 | 4.0 | 0.00 | 0.00 | 0.00 | 35 | 1018.0 |
| 20260504180657 | 70 | 93 | 3.0 | 6.0 | 0.00 | 0.00 | 0.00 | 35 | 1017.9 |
| 20260504180155 | 70 | 100 | 3.0 | 4.0 | 0.00 | 0.00 | 0.00 | 36 | 1017.9 |
| 20260504175652 | 70 | 93 | 5.0 | 6.0 | 0.00 | 0.00 | 0.00 | 36 | 1017.7 |
| 20260504175148 | 69 | 79 | 4.0 | 5.0 | 0.00 | 0.00 | 0.00 | 36 | 1017.8 |
| 20260504174647 | 69 | 339 | 2.0 | 4.0 | 0.00 | 0.00 | 0.00 | 37 | 1017.8 |
| 20260504174143 | 69 | 85 | 2.0 | 4.0 | 0.00 | 0.00 | 0.00 | 37 | 1017.9 |
| 20260504173640 | 68 | 72 | 4.0 | 8.0 | 0.00 | 0.00 | 0.00 | 38 | 1017.6 |
| 20260504173138 | 67 | 88 | 6.0 | 6.0 | 0.00 | 0.00 | 0.00 | 38 | 1017.6 |
| 20260504172634 | 68 | 230 | 4.0 | 6.0 | 0.00 | 0.00 | 0.00 | 38 | 1017.7 |
| 20260504172131 | 68 | 325 | 5.0 | 8.0 | 0.00 | 0.00 | 0.00 | 38 | 1017.5 |
| 20260504171627 | 66 | 329 | 6.0 | 13.0 | 0.00 | 0.00 | 0.00 | 39 | 1017.5 |
| 20260504171125 | 66 | 276 | 2.0 | 11.0 | 0.00 | 0.00 | 0.00 | 40 | 1017.6 |
| 20260504170621 | 66 | 321 | 9.0 | 10.0 | 0.00 | 0.00 | 0.00 | 40 | 1017.5 |
| 20260504170118 | 65 | 330 | 5.0 | 13.0 | 0.00 | 0.00 | 0.00 | 41 | 1017.7 |
| 20260504150958 | 63 | 329 | 7.0 | 20.0 | 0.00 | 0.00 | 0.00 | 43 | 1016.9 |
| 20260504150455 | 62 | 284 | 3.0 | 13.0 | 0.00 | 0.00 | 0.00 | 44 | 1016.8 |
| 20260504140916 | 62 | 221 | 4.0 | 16.0 | 0.00 | 0.00 | 0.00 | 46 | 1016.6 |
| 20260504140412 | 62 | 245 | 6.0 | 17.0 | 0.00 | 0.00 | 0.00 | 46 | 1016.3 |
| 20260504130338 | 62 | 263 | 4.0 | 16.0 | 0.00 | 0.00 | 0.00 | 45 | 1016.3 |
| 20260504120300 | 62 | 353 | 6.0 | 11.0 | 0.00 | 0.00 | 0.00 | 47 | 1015.5 |
| 20260504110224 | 63 | 266 | 5.0 | 13.0 | 0.00 | 0.00 | 0.00 | 47 | 1015.5 |
| 20260504100147 | 62 | 251 | 3.0 | 6.0 | 0.00 | 0.00 | 0.00 | 50 | 1015.2 |